Weather History for Kimball, NE

Change the Weather History Date:

Tuesday, August 5, 2014

  Actual Average (KSNY) Record (KSNY)
Temperature  
Mean Temperature 70 °F 75 °F  
Max Temperature 81 °F 90 °F 102 °F (1979)
Min Temperature 59 °F 60 °F 43 °F (1980)
Degree Days  
Heating Degree Days 0 0  
Month to date heating degree days 0  
Since 1 June heating degree days 62  
Since 1 July heating degree days 3  
Cooling Degree Days 5 10  
Month to date cooling degree days 50  
Year to date cooling degree days 528  
Since 1 June cooling degree days 506  
Growing Degree Days 20 (Base 50)    
Moisture  
Dew Point 56 °F    
Average Humidity 63    
Maximum Humidity 88    
Minimum Humidity 36    
Precipitation  
Precipitation 0.01 in 0.08 in 0.86 in (1955)
Month to date precipitation 0.44  
Year to date precipitation 13.34  
Sea Level Pressure  
Sea Level Pressure 30.10 in    
Wind  
Wind Speed 7 mph (NNW)    
Max Wind Speed 24 mph    
Max Gust Speed 36 mph    
Visibility 10 miles    
Events Rain , Thunderstorm    
T = Trace of Precipitation, MM = Missing Value Source: NWS Daily Summary

Daily Weather History Graph

Daily Weather History Graph

Search for Another Location

Airport:

Trip Planner

Search our weather history database for the weather conditions in past years. The results will help you decide how hot, cold, wet, or windy it might be!

Date:

Astronomy

Aug. 05, 2014 Rise Set
Actual Time 6:54 AM CDT 9:06 PM CDT
Civil Twilight 6:23 AM CDT 9:37 PM CDT
Nautical Twilight 5:45 AM CDT 10:14 PM CDT
Astronomical Twilight 5:04 AM CDT 10:55 PM CDT
Moon 4:24 PM CDT (8/5) 1:43 AM CDT (8/5)
Length of Visible Light 15h 13m
Length of Day
14h 12m
Waxing Gibbous, 68% of the Moon is Illuminated
Aug 5
Waxing Gibbous
Aug 10
Full
Aug 17
Last Quarter
Aug 25
New
Sep 2
First Quarter

Hourly Weather History & Observations

Time (CDT) Temp. Heat Index Dew Point Humidity Pressure Visibility Wind Dir Wind Speed Gust Speed Precip Events Conditions
12:15 AM 68.7 °F - 55.4 °F 62% 30.12 in 10.0 mi North 5.8 mph - N/A   Clear
12:35 AM 67.5 °F - 55.2 °F 65% 30.11 in 10.0 mi Calm Calm - N/A   Clear
12:55 AM 68.9 °F - 54.7 °F 60% 30.10 in 10.0 mi Calm Calm - N/A   Clear
1:15 AM 67.8 °F - 55.2 °F 64% 30.09 in 10.0 mi Calm Calm - N/A   Clear
1:35 AM 65.5 °F - 54.0 °F 66% 30.08 in 10.0 mi NNE 6.9 mph - N/A   Clear
1:55 AM 67.1 °F - 52.9 °F 60% 30.07 in 10.0 mi North 5.8 mph - N/A   Clear
2:15 AM 67.3 °F - 52.5 °F 59% 30.07 in 10.0 mi North 8.1 mph - N/A   Clear
2:35 AM 66.2 °F - 52.7 °F 62% 30.07 in 10.0 mi North 6.9 mph - N/A   Clear
2:55 AM 66.2 °F - 52.9 °F 62% 30.07 in 10.0 mi NNW 3.5 mph - N/A   Clear
3:15 AM 63.1 °F - 54.0 °F 72% 30.07 in 10.0 mi NNW 4.6 mph - N/A   Clear
3:35 AM 62.4 °F - 53.8 °F 73% 30.07 in 10.0 mi North 5.8 mph - N/A   Clear
3:55 AM 63.9 °F - 52.7 °F 67% 30.08 in 10.0 mi Calm Calm - N/A   Clear
4:15 AM 61.0 °F - 53.6 °F 77% 30.07 in 10.0 mi NNW 3.5 mph - N/A   Clear
4:35 AM 62.4 °F - 53.2 °F 72% 30.07 in 10.0 mi North 4.6 mph - N/A   Clear
4:55 AM 62.4 °F - 53.8 °F 73% 30.08 in 10.0 mi WSW 4.6 mph - N/A   Clear
5:15 AM 60.8 °F - 54.7 °F 80% 30.08 in 10.0 mi West 3.5 mph - N/A   Clear
5:55 AM 61.7 °F - 53.6 °F 75% 30.08 in 10.0 mi NW 4.6 mph - N/A   Clear
6:15 AM 60.1 °F - 53.8 °F 80% 30.09 in 10.0 mi NW 5.8 mph - N/A   Clear
6:35 AM 60.3 °F - 54.1 °F 80% 30.09 in 10.0 mi NW 6.9 mph - N/A   Clear
6:55 AM 61.0 °F - 54.0 °F 78% 30.10 in 10.0 mi NW 6.9 mph - N/A   Clear
7:15 AM 59.5 °F - 54.5 °F 83% 30.10 in 10.0 mi NNW 5.8 mph - N/A   Clear
7:35 AM 61.3 °F - 54.7 °F 79% 30.11 in 10.0 mi NW 8.1 mph - N/A   Clear
7:55 AM 62.1 °F - 55.0 °F 78% 30.11 in 10.0 mi NW 6.9 mph - N/A   Mostly Cloudy
8:20 AM 63.7 °F - 55.8 °F 75% 30.12 in 10.0 mi NW 5.8 mph - N/A   Overcast
8:35 AM 65.1 °F - 56.3 °F 73% 30.12 in 10.0 mi NW 11.5 mph - N/A   Overcast
8:55 AM 65.5 °F - 57.0 °F 74% 30.12 in 10.0 mi NW 10.4 mph - N/A   Overcast
9:15 AM 66.6 °F - 57.2 °F 72% 30.11 in 10.0 mi NNW 11.5 mph 17.3 mph N/A   Mostly Cloudy
9:35 AM 67.1 °F - 57.0 °F 70% 30.12 in 10.0 mi NW 11.5 mph - N/A   Scattered Clouds
9:55 AM 67.6 °F - 57.2 °F 69% 30.12 in 10.0 mi NW 12.7 mph - N/A   Clear
10:15 AM 71.8 °F - 57.7 °F 61% 30.12 in 10.0 mi WNW 13.8 mph 18.4 mph N/A   Clear
10:35 AM 72.0 °F - 57.7 °F 61% 30.13 in 10.0 mi WNW 13.8 mph - N/A   Scattered Clouds
10:55 AM 71.1 °F - 57.2 °F 61% 30.13 in 10.0 mi NNW 10.4 mph - N/A   Mostly Cloudy
11:15 AM 70.7 °F - 57.2 °F 62% 30.14 in 10.0 mi NW 11.5 mph - N/A   Overcast
11:35 AM 70.7 °F - 58.6 °F 66% 30.15 in 10.0 mi NW 9.2 mph - N/A   Overcast
11:55 AM 70.3 °F - 58.3 °F 66% 30.14 in 10.0 mi NW 6.9 mph - N/A   Mostly Cloudy
12:15 PM 72.5 °F - 58.1 °F 60% 30.13 in 10.0 mi NNW 8.1 mph - N/A   Mostly Cloudy
12:35 PM 75.2 °F - 56.8 °F 53% 30.13 in 10.0 mi NNW 10.4 mph - N/A   Scattered Clouds
12:55 PM 78.1 °F - 58.1 °F 50% 30.13 in 10.0 mi NNW 9.2 mph - N/A Thunderstorm Scattered Clouds
1:15 PM 76.1 °F - 58.3 °F 54% 30.13 in 10.0 mi North 6.9 mph - N/A   Mostly Cloudy
1:35 PM 76.5 °F - 56.3 °F 50% 30.13 in 10.0 mi NW 10.4 mph 17.3 mph N/A   Overcast
1:55 PM 75.2 °F - 57.4 °F 54% 30.14 in 10.0 mi NW 11.5 mph - N/A   Scattered Clouds
2:08 PM 73.4 °F - 57.2 °F 57% 30.13 in 10.0 mi North 9.2 mph - N/A   Scattered Clouds
2:15 PM 73.6 °F - 57.6 °F 57% 30.13 in 10.0 mi North 8.1 mph - N/A   Scattered Clouds
2:28 PM 73.4 °F - 57.2 °F 57% 30.13 in 10.0 mi North 8.1 mph - N/A Rain Light Rain
2:35 PM 73.4 °F - 58.1 °F 59% 30.12 in 10.0 mi NNE 10.4 mph - N/A Rain Light Rain
2:48 PM 75.2 °F - 57.2 °F 53% 30.12 in 10.0 mi North 8.1 mph - N/A   Scattered Clouds
2:55 PM 75.2 °F - 57.7 °F 54% 30.12 in 10.0 mi North 9.2 mph - N/A   Scattered Clouds
3:08 PM 75.2 °F - 57.2 °F 53% 30.12 in 10.0 mi NNE 9.2 mph - N/A   Scattered Clouds
3:15 PM 76.1 °F - 57.2 °F 52% 30.12 in 10.0 mi NNE 8.1 mph - N/A   Scattered Clouds
3:35 PM 78.1 °F - 57.0 °F 48% 30.11 in 10.0 mi NNE 9.2 mph - N/A   Mostly Cloudy
3:48 PM 78.8 °F - 57.2 °F 47% 30.10 in 10.0 mi NNE 9.2 mph - N/A   Mostly Cloudy
3:55 PM 77.9 °F - 58.1 °F 50% 30.10 in 10.0 mi NNE 10.4 mph - N/A   Mostly Cloudy
4:08 PM 78.8 °F - 55.4 °F 44% 30.10 in 10.0 mi North 11.5 mph - N/A   Scattered Clouds
4:15 PM 79.0 °F - 56.5 °F 46% 30.10 in 10.0 mi NNE 11.5 mph - N/A   Scattered Clouds
4:35 PM 80.2 °F - 52.0 °F 37% 30.08 in 10.0 mi NNE 11.5 mph 18.4 mph N/A   Clear
4:48 PM 80.6 °F - 51.8 °F 37% 30.08 in 10.0 mi NE 9.2 mph - N/A   Clear
4:55 PM 80.2 °F - 52.9 °F 39% 30.08 in 10.0 mi NE 9.2 mph - N/A   Clear
5:15 PM 80.8 °F 80.5 °F 54.7 °F 40% 30.08 in 10.0 mi ENE 9.2 mph - N/A   Clear
5:28 PM 80.6 °F 80.3 °F 53.6 °F 39% 30.08 in 10.0 mi East 9.2 mph - N/A   Clear
5:35 PM 80.8 °F 80.3 °F 53.1 °F 38% 30.07 in 10.0 mi East 10.4 mph - N/A   Clear
5:48 PM 80.6 °F - 51.8 °F 37% 30.08 in 10.0 mi East 6.9 mph - N/A   Clear
5:55 PM 81.1 °F - 52.0 °F 36% 30.08 in 10.0 mi East 6.9 mph - N/A   Clear
6:15 PM 80.4 °F - 51.1 °F 36% 30.08 in 10.0 mi East 5.8 mph - N/A   Clear
6:28 PM 78.8 °F - 51.8 °F 39% 30.08 in 10.0 mi ESE 5.8 mph - N/A   Clear
6:35 PM 78.4 °F - 52.5 °F 40% 30.08 in 10.0 mi ESE 4.6 mph - N/A   Clear
6:48 PM 78.8 °F - 53.6 °F 42% 30.08 in 10.0 mi SE 6.9 mph - N/A   Clear
6:55 PM 77.5 °F - 54.0 °F 44% 30.08 in 10.0 mi ESE 4.6 mph - N/A   Clear
7:07 PM 77.0 °F - 53.6 °F 44% 30.08 in 10.0 mi ESE 6.9 mph - N/A   Clear
7:15 PM 77.0 °F - 54.3 °F 45% 30.08 in 10.0 mi ESE 4.6 mph - N/A   Clear
7:28 PM 75.2 °F - 55.4 °F 50% 30.09 in 10.0 mi ESE 4.6 mph - N/A   Scattered Clouds
7:35 PM 75.9 °F - 55.0 °F 48% 30.10 in 10.0 mi Calm Calm - N/A Thunderstorm Mostly Cloudy
7:47 PM 71.6 °F - 53.6 °F 53% 30.13 in 10.0 mi West 24.2 mph 35.7 mph N/A Rain , Thunderstorm Light Thunderstorms and Rain
7:55 PM 66.4 °F - 56.1 °F 69% 30.13 in 10.0 mi West 19.6 mph 33.4 mph N/A Rain , Thunderstorm Light Thunderstorms and Rain
8:08 PM 66.2 °F - 57.2 °F 73% 30.12 in 10.0 mi West 13.8 mph - N/A   Mostly Cloudy
8:15 PM 66.7 °F - 57.0 °F 71% 30.12 in 10.0 mi West 11.5 mph - N/A Rain Light Rain
8:28 PM 68.0 °F - 57.2 °F 68% 30.12 in 10.0 mi West 8.1 mph - N/A Rain Light Rain
8:35 PM 68.4 °F - 57.0 °F 67% 30.12 in 10.0 mi WSW 5.8 mph - N/A Rain Light Rain
8:55 PM 66.9 °F - 59.5 °F 77% 30.12 in 10.0 mi SW 5.8 mph - N/A Rain Rain
9:08 PM 64.4 °F - 60.8 °F 88% 30.10 in 10.0 mi SE 8.1 mph - 0.01 in Rain , Thunderstorm Light Thunderstorms and Rain
9:15 PM 65.5 °F - 61.0 °F 85% 30.10 in 10.0 mi SE 10.4 mph - 0.01 in Rain , Thunderstorm Light Thunderstorms and Rain
9:28 PM 66.2 °F - 60.8 °F 83% 30.09 in 10.0 mi SE 5.8 mph - 0.01 in   Scattered Clouds
9:35 PM 65.8 °F - 59.5 °F 80% 30.10 in 10.0 mi Calm Calm - 0.01 in   Scattered Clouds
9:48 PM 66.2 °F - 60.8 °F 83% 30.11 in 10.0 mi WNW 4.6 mph - 0.01 in   Clear
9:55 PM 68.0 °F - 56.8 °F 67% 30.12 in 10.0 mi Calm Calm - 0.01 in   Clear
10:08 PM 66.2 °F - 59.0 °F 78% 30.12 in 10.0 mi NNW 5.8 mph - N/A   Clear
10:15 PM 66.2 °F - 59.0 °F 78% 30.12 in 10.0 mi NNW 6.9 mph - N/A   Clear
10:28 PM 64.4 °F - 57.2 °F 77% 30.12 in 10.0 mi WNW 8.1 mph - N/A   Clear
10:35 PM 63.1 °F - 58.5 °F 85% 30.12 in 10.0 mi WNW 6.9 mph - N/A   Clear
10:48 PM 62.6 °F - 57.2 °F 82% 30.11 in 10.0 mi WNW 6.9 mph - N/A   Clear
10:55 PM 62.8 °F - 57.6 °F 83% 30.10 in 10.0 mi WNW 5.8 mph - N/A   Clear
11:15 PM 62.2 °F - 57.2 °F 84% 30.11 in 10.0 mi WNW 4.6 mph - N/A   Clear
11:28 PM 62.6 °F - 57.2 °F 82% 30.12 in 10.0 mi WNW 10.4 mph - N/A   Clear
11:35 PM 62.4 °F - 57.6 °F 84% 30.12 in 10.0 mi WNW 10.4 mph - N/A   Scattered Clouds
11:48 PM 62.6 °F - 57.2 °F 82% 30.11 in 10.0 mi West 10.4 mph - N/A   Mostly Cloudy
11:55 PM 63.1 °F - 57.6 °F 82% 30.11 in 10.0 mi West 9.2 mph - N/A   Mostly Cloudy